When you browse on this site, cookies collect data to enhance your experience and personalize the content and advertising you see.
Visit our Privacy Policy to learn more. By continuing to use the site, you agree to this use of cookies and data.
  • en Suisse
  • Liste des pays
  • À 7 jours
  • Température de l'eau
  • Carte satellitaire
  • Carte météo
  • Widgets météo
  • user-avatar
    Se connecter

    Météo par heure à Bietigheim-Bissingen

    Ce jour, 22 Juillet, Lundi

    Heure Température Précipitation Vent Pression Humidité
    00:00 +21°C° 0 mm 1 m/s 746 mmHg 73%
    01:00 +20°C° 0 mm 1 m/s 746 mmHg 75%
    02:00 +18°C° 0 mm 0 m/s 746 mmHg 77%
    03:00 +17°C° 0 mm 0 m/s 747 mmHg 78%
    04:00 +17°C° 0 mm 0 m/s 747 mmHg 80%
    05:00 +18°C° 0 mm 0 m/s 747 mmHg 77%
    06:00 +19°C° 0 mm 0 m/s 747 mmHg 75%
    07:00 +20°C° 0 mm 0 m/s 747 mmHg 73%
    08:00 +22°C° 0 mm 0 m/s 747 mmHg 67%
    09:00 +25°C° 0 mm 1 m/s 747 mmHg 61%
    10:00 +27°C° 0 mm 1 m/s 747 mmHg 55%
    11:00 +28°C° 0 mm 1 m/s 747 mmHg 52%
    12:00 +29°C° 0 mm 1 m/s 747 mmHg 48%
    13:00 +29°C° 0 mm 2 m/s 747 mmHg 45%
    14:00 +30°C° 0 mm 1 m/s 747 mmHg 44%
    15:00 +30°C° 0 mm 1 m/s 747 mmHg 43%
    16:00 +30°C° 0 mm 1 m/s 747 mmHg 42%
    17:00 +28°C° 0 mm 1 m/s 746 mmHg 47%
    18:00 +27°C° 0 mm 1 m/s 746 mmHg 51%
    19:00 +26°C° 0 mm 1 m/s 746 mmHg 56%
    20:00 +25°C° 0 mm 1 m/s 746 mmHg 60%
    21:00 +23°C° 0 mm 1 m/s 746 mmHg 63%
    22:00 +22°C° 0 mm 1 m/s 747 mmHg 67%
    23:00 +21°C° 0 mm 1 m/s 746 mmHg 70%

    Demain, 23 Juillet, Mardi

    Heure Température Précipitation Vent Pression Humidité
    00:00 +21°C° 0 mm 1 m/s 746 mmHg 73%
    01:00 +20°C° 0 mm 1 m/s 746 mmHg 76%
    02:00 +20°C° 0 mm 1 m/s 746 mmHg 78%
    03:00 +20°C° 0 mm 1 m/s 746 mmHg 79%
    04:00 +19°C° 0 mm 1 m/s 746 mmHg 80%
    05:00 +20°C° 0 mm 1 m/s 746 mmHg 78%
    06:00 +21°C° 0 mm 1 m/s 745 mmHg 75%
    07:00 +22°C° 0 mm 1 m/s 745 mmHg 73%
    08:00 +24°C° 0 mm 1 m/s 745 mmHg 66%
    09:00 +26°C° 0 mm 2 m/s 745 mmHg 59%
    10:00 +28°C° 0 mm 2 m/s 745 mmHg 52%
    11:00 +29°C° 0 mm 2 m/s 745 mmHg 48%
    12:00 +31°C° 0 mm 2 m/s 745 mmHg 45%
    13:00 +32°C° 0 mm 2 m/s 744 mmHg 41%
    14:00 +32°C° 0 mm 2 m/s 744 mmHg 41%
    15:00 +33°C° 0 mm 3 m/s 744 mmHg 42%
    16:00 +33°C° 0 mm 3 m/s 743 mmHg 42%
    17:00 +31°C° 0 mm 2 m/s 743 mmHg 49%
    18:00 +30°C° 0 mm 2 m/s 743 mmHg 55%
    19:00 +28°C° 0 mm 2 m/s 742 mmHg 61%
    20:00 +27°C° 0 mm 2 m/s 743 mmHg 65%
    21:00 +25°C° 0 mm 2 m/s 743 mmHg 68%
    22:00 +24°C° 0 mm 1 m/s 743 mmHg 72%
    23:00 +23°C° 0 mm 1 m/s 743 mmHg 74%

    Après-demain, 24 Juillet, Mercredi

    Heure Température Précipitation Vent Pression Humidité
    00:00 +22°C° 0 mm 1 m/s 742 mmHg 76%
    01:00 +22°C° 0 mm 1 m/s 742 mmHg 78%
    02:00 +21°C° 0 mm 1 m/s 742 mmHg 79%
    03:00 +21°C° 0 mm 1 m/s 742 mmHg 80%
    04:00 +19°C° 0 mm 2 m/s 742 mmHg 81%
    05:00 +20°C° 0 mm 2 m/s 742 mmHg 79%
    06:00 +21°C° 0 mm 2 m/s 742 mmHg 76%
    07:00 +23°C° 0 mm 2 m/s 742 mmHg 74%
    08:00 +25°C° 0 mm 2 m/s 742 mmHg 67%
    09:00 +28°C° 0 mm 2 m/s 742 mmHg 59%
    10:00 +30°C° 0 mm 2 m/s 742 mmHg 52%
    11:00 +31°C° 0 mm 2 m/s 742 mmHg 47%
    12:00 +33°C° 0 mm 1 m/s 742 mmHg 42%
    13:00 +34°C° 0 mm 1 m/s 742 mmHg 37%
    14:00 +35°C° 0 mm 1 m/s 741 mmHg 36%
    15:00 +35°C° 0 mm 1 m/s 741 mmHg 35%
    16:00 +35°C° 0 mm 1 m/s 741 mmHg 34%
    17:00 +34°C° 0 mm 2 m/s 741 mmHg 43%
    18:00 +32°C° 0 mm 2 m/s 741 mmHg 52%
    19:00 +30°C° 0 mm 2 m/s 741 mmHg 61%
    20:00 +29°C° 0 mm 2 m/s 741 mmHg 66%
    21:00 +27°C° 0 mm 2 m/s 741 mmHg 70%
    22:00 +25°C° 0 mm 1 m/s 741 mmHg 75%
    23:00 +25°C° 0 mm 1 m/s 741 mmHg 77%

    25 Juillet, Jeudi

    Heure Température Précipitation Vent Pression Humidité
    00:00 +24°C° 0 mm 1 m/s 741 mmHg 79%
    01:00 +23°C° 0 mm 1 m/s 741 mmHg 81%
    02:00 +23°C° 0 mm 1 m/s 741 mmHg 81%
    03:00 +23°C° 0 mm 2 m/s 741 mmHg 80%
    04:00 +21°C° 0 mm 2 m/s 741 mmHg 80%
    05:00 +23°C° 0 mm 2 m/s 741 mmHg 77%
    06:00 +24°C° 0 mm 2 m/s 741 mmHg 73%
    07:00 +25°C° 0 mm 2 m/s 741 mmHg 70%
    08:00 +27°C° 0 mm 3 m/s 741 mmHg 63%
    09:00 +29°C° 0 mm 3 m/s 741 mmHg 56%
    10:00 +31°C° 0 mm 3 m/s 741 mmHg 49%
    11:00 +33°C° 0 mm 3 m/s 741 mmHg 46%
    12:00 +34°C° 0 mm 4 m/s 740 mmHg 43%
    13:00 +35°C° 0 mm 4 m/s 740 mmHg 39%
    14:00 +35°C° 0 mm 4 m/s 740 mmHg 40%
    15:00 +35°C° 0 mm 4 m/s 739 mmHg 42%
    16:00 +35°C° 0 mm 4 m/s 739 mmHg 43%
    17:00 +34°C° 0 mm 3 m/s 739 mmHg 49%
    18:00 +33°C° 0 mm 3 m/s 739 mmHg 56%
    19:00 +31°C° 0 mm 3 m/s 739 mmHg 63%
    20:00 +29°C° 0 mm 3 m/s 739 mmHg 66%
    21:00 +27°C° 0 mm 2 m/s 739 mmHg 70%
    22:00 +26°C° 0 mm 2 m/s 739 mmHg 74%
    23:00 +25°C° 0 mm 2 m/s 739 mmHg 75%

    26 Juillet, Vendredi

    Heure Température Précipitation Vent Pression Humidité
    00:00 +24°C° 0 mm 2 m/s 738 mmHg 76%
    01:00 +24°C° 0 mm 2 m/s 738 mmHg 78%
    02:00 +23°C° 0 mm 2 m/s 738 mmHg 79%
    03:00 +23°C° 0 mm 2 m/s 738 mmHg 80%
    04:00 +23°C° 0 mm 2 m/s 737 mmHg 81%
    05:00 +23°C° 0 mm 2 m/s 737 mmHg 78%
    06:00 +24°C° 0 mm 2 m/s 737 mmHg 75%
    07:00 +25°C° 0 mm 2 m/s 737 mmHg 72%
    08:00 +27°C° 0 mm 1 m/s 737 mmHg 65%
    09:00 +30°C° 0 mm 1 m/s 737 mmHg 58%
    10:00 +30°C° 0 mm 0 m/s 738 mmHg 51%
    11:00 +33°C° 0 mm 1 m/s 737 mmHg 47%
    12:00 +35°C° 0 mm 2 m/s 737 mmHg 44%
    13:00 +36°C° 0 mm 3 m/s 737 mmHg 40%
    14:00 +35°C° 0 mm 3 m/s 737 mmHg 42%
    15:00 +35°C° 0 mm 2 m/s 737 mmHg 43%
    16:00 +34°C° 0 mm 2 m/s 736 mmHg 45%
    17:00 +32°C° 0.1 mm 2 m/s 737 mmHg 51%
    18:00 +31°C° 0.1 mm 1 m/s 737 mmHg 57%
    19:00 +29°C° 0.1 mm 1 m/s 737 mmHg 63%
    20:00 +28°C° 0.5 mm 2 m/s 737 mmHg 67%
    21:00 +26°C° 0.5 mm 3 m/s 737 mmHg 71%
    22:00 +25°C° 0.5 mm 4 m/s 737 mmHg 75%
    23:00 +24°C° 0.2 mm 3 m/s 737 mmHg 78%

    27 Juillet, Samedi

    Heure Température Précipitation Vent Pression Humidité
    00:00 +24°C° 0.2 mm 3 m/s 737 mmHg 81%
    01:00 +23°C° 0.2 mm 2 m/s 738 mmHg 84%
    02:00 +23°C° 0.1 mm 2 m/s 738 mmHg 87%
    03:00 +21°C° 0.1 mm 3 m/s 738 mmHg 89%
    04:00 +21°C° 0.1 mm 3 m/s 738 mmHg 92%
    05:00 +21°C° 0.1 mm 3 m/s 738 mmHg 91%
    06:00 +21°C° 0.1 mm 3 m/s 738 mmHg 90%
    07:00 +21°C° 0.1 mm 4 m/s 738 mmHg 89%
    08:00 +21°C° 0.1 mm 3 m/s 738 mmHg 87%
    09:00 +21°C° 0.1 mm 3 m/s 739 mmHg 85%
    10:00 +22°C° 0.1 mm 3 m/s 739 mmHg 83%
    11:00 +24°C° 0.2 mm 3 m/s 739 mmHg 79%
    12:00 +25°C° 0.2 mm 4 m/s 739 mmHg 75%
    13:00 +26°C° 0.2 mm 4 m/s 739 mmHg 70%
    14:00 +23°C° 0.6 mm 4 m/s 739 mmHg 75%
    15:00 +22°C° 0.6 mm 5 m/s 739 mmHg 80%
    16:00 +21°C° 0.6 mm 5 m/s 739 mmHg 85%
    17:00 +20°C° 0.9 mm 4 m/s 739 mmHg 87%
    18:00 +20°C° 0.9 mm 3 m/s 740 mmHg 90%
    19:00 +19°C° 0.9 mm 2 m/s 740 mmHg 92%
    20:00 +19°C° 0.5 mm 2 m/s 740 mmHg 92%
    21:00 +19°C° 0.5 mm 2 m/s 741 mmHg 92%
    22:00 +18°C° 0.5 mm 2 m/s 741 mmHg 92%
    23:00 +18°C° 0 mm 2 m/s 741 mmHg 92%
    Voir plus